一网星座-0273星 (ONEWEB-0273 )

导读

ONEWEB-0273是英国OneWeb公司的低轨宽带通信卫星,于2021年7月1日搭乘俄罗斯“联盟-2.1b”火箭发射,是OneWeb第8批36颗组网卫星之一。它运行在约1200公里的近极轨道,配备Ku/Ka波段天线,依托氙等离子推力器,单星设计寿命超7年,属于OneWeb第一代全球低轨卫星互联网星座,为航空、海事、偏远地区提供低时延宽带接入,助力完成北纬50度以北的网络覆盖部署。

基本信息
目录编号:
48991
目录名称:
ONEWEB-0273
国际标识:
2021-060AA
轨道中心:
EARTH
卫星名称:
一网星座-0273星
卫星全名:
一网星座-0273星 (ONEWEB-0273 )
卫星状态:
在轨 (已飞行1807 天)
发射日期:
2021-07-01 UTC
国别 :
英国 (GB)
星等 :
--
轨道信息
数据来源 国际轨道数据 AOE轨道数据
星历时间 2026-06-12T12:47:07+0800
16小时前
查看轨道信息
2026-06-13T00:00:00+0800
5小时前
查看轨道信息
半长轴 7575.893km 7575.901km
偏心率 0.0001925 0.0001387
轨道倾角 87.910° 87.911°
近地点辐角 100.687° 79.893°
升交点赤经 229.774° 229.681°
平近点角 259.448° 333.778°
近地点 1196.297km 1196.713km
远地点 1199.215km 1198.815km
周期 109.373分钟 109.373分钟
每日圈数 13.165946 13.165924
详细信息
平衡模式:
三轴稳定
覆盖范围:
全球
运营商:
一网卫星公司
运营商所在国:
英国
制造商(研发单位):
一网卫星公司
制造商所在国:
英国
使用方式:
暂无
卫星简介
OneWeb卫星网络由648颗重约125公斤的微型卫星组成,运行在1200公里的轨道上。 每颗卫星都能够提供至少每秒8千兆位的吞吐量,以使用其高吞吐量的Ku频段有效载荷为家庭和移动平台提供互联网接入。该卫星仍在工作。
2D轨道图
3D轨道图
轨道高度分析图
轨道倾角分析图
轨道综合分析图
查看轨道综合分析图